Lima, OH

12:55 AM EDT on July 21, 2017 (GMT -0400)
Lima Allen County

Weather History for KAOH - January, 2013

Change the Weather History Date:

Saturday, January 12, 2013

  Actual Average (KFDY) Record (KFDY)
Temperature  
Mean Temperature 56 °F -  
Max Temperature 61 °F 28 °F 64 °F (2005)
Min Temperature 51 °F 15 °F -7 °F (1977)
Degree Days  
Heating Degree Days 10    
Growing Degree Days 6 (Base 50)    
Moisture  
Dew Point 51 °F    
Average Humidity 86    
Maximum Humidity 94    
Minimum Humidity 74    
Precipitation  
Precipitation 0.75 in - - ()
Sea Level Pressure  
Sea Level Pressure 29.90 in    
Wind  
Wind Speed 10 mph (SSE)    
Max Wind Speed 17 mph    
Max Gust Speed 18 mph    
Visibility 7 miles    
Events Rain    
Averages and records for this station are not official NWS values.
T = Trace of Precipitation, MM = Missing Value Source: NWS Daily Summary

Daily Weather History Graph

Daily Weather History Graph

Search for Another Location

Airport or City:

Trip Planner

Search our weather history database for the weather conditions in past years. The results will help you decide how hot, cold, wet, or windy it might be!

Date:

Astronomy

Jan. 12, 2013 Rise Set
Actual Time 7:59 AM EST 5:30 PM EST
Civil Twilight 7:28 AM EST 6:00 PM EST
Nautical Twilight 6:54 AM EST 6:34 PM EST
Astronomical Twilight 6:21 AM EST 7:07 PM EST
Moon 8:16 AM EST (1/12) 6:58 PM EST (1/12)
Length of Visible Light 10h 32m
Length of Day
9h 31m
New Moon, 1% of the Moon is Illuminated
Jan 12
New Moon
Jan 18
First Quarter
Jan 26
Full
Feb 3
Last Quarter
Feb 10
New

Hourly Weather History & Observations

Time (EST) Temp. Dew Point Humidity Pressure Visibility Wind Dir Wind Speed Gust Speed Precip Events Conditions
12:53 AM 53.1 °F 45.0 °F 74% 29.89 in 10.0 mi South 9.2 mph - N/A   Clear
1:53 AM 52.0 °F 45.0 °F 77% 29.89 in 10.0 mi South 10.4 mph - N/A   Clear
2:53 AM 51.1 °F 45.0 °F 80% 29.92 in 10.0 mi South 10.4 mph - N/A   Clear
3:53 AM 53.1 °F 46.0 °F 77% 29.92 in 10.0 mi SSW 12.7 mph - N/A   Clear
4:53 AM 52.0 °F 46.0 °F 80% 29.91 in 10.0 mi South 11.5 mph - N/A   Clear
5:53 AM 53.1 °F 48.0 °F 83% 29.91 in 10.0 mi SSW 12.7 mph - N/A   Clear
6:53 AM 53.1 °F 48.9 °F 86% 29.93 in 10.0 mi SSW 11.5 mph 18.4 mph N/A   Clear
7:53 AM 52.0 °F 48.9 °F 89% 29.95 in 10.0 mi South 12.7 mph - N/A   Clear
8:53 AM 53.1 °F 48.9 °F 86% 29.98 in 8.0 mi SSW 11.5 mph - N/A   Clear
9:22 AM 53.6 °F 48.2 °F 82% 29.98 in 7.0 mi South 10.4 mph - N/A   Partly Cloudy
9:35 AM 53.6 °F 50.0 °F 88% 29.99 in 6.0 mi SSW 12.7 mph - N/A   Mostly Cloudy
9:53 AM 53.1 °F 50.0 °F 89% 29.99 in 6.0 mi South 11.5 mph - N/A   Overcast
10:53 AM 55.0 °F 51.1 °F 86% 30.01 in 8.0 mi SSW 10.4 mph - N/A   Mostly Cloudy
11:53 AM 55.9 °F 52.0 °F 87% 29.97 in 8.0 mi SSW 11.5 mph - N/A   Partly Cloudy
12:53 PM 59.0 °F 53.1 °F 81% 29.96 in 10.0 mi SW 12.7 mph - N/A   Clear
1:53 PM 60.1 °F 53.1 °F 78% 29.96 in 10.0 mi SSW 11.5 mph - N/A   Clear
2:53 PM 60.1 °F 53.1 °F 78% 29.97 in 10.0 mi SW 8.1 mph - N/A   Mostly Cloudy
3:53 PM 60.1 °F 53.1 °F 78% 29.97 in 10.0 mi SSW 5.8 mph - N/A   Mostly Cloudy
4:24 PM 60.8 °F 53.6 °F 77% 29.96 in 10.0 mi SSW 5.8 mph - N/A   Scattered Clouds
4:53 PM 59.0 °F 52.0 °F 78% 29.95 in 10.0 mi South 3.5 mph - N/A   Clear
5:53 PM 54.0 °F 50.0 °F 86% 29.94 in 9.0 mi Calm Calm - N/A   Scattered Clouds
6:02 PM 53.6 °F 51.8 °F 94% 29.94 in 9.0 mi SE 3.5 mph - N/A   Mostly Cloudy
6:16 PM 55.4 °F 50.0 °F 82% 29.92 in 9.0 mi East 3.5 mph - N/A   Scattered Clouds
6:53 PM 55.0 °F 51.1 °F 86% 29.93 in 9.0 mi ESE 6.9 mph - N/A   Mostly Cloudy
8:53 PM 55.0 °F 51.1 °F 86% 29.87 in 6.0 mi ESE 6.9 mph - 0.00 in Rain Light Rain
9:17 PM 53.6 °F 51.8 °F 94% 29.87 in 2.5 mi ESE 4.6 mph - 0.05 in Rain Rain
9:34 PM 53.6 °F 51.8 °F 94% 29.85 in 2.5 mi ESE 5.8 mph - 0.12 in Rain Rain
9:37 PM 55.4 °F 51.8 °F 88% 29.84 in 1.8 mi ESE 4.6 mph - 0.15 in Rain Heavy Rain
9:53 PM 55.0 °F 53.1 °F 93% 29.84 in 1.2 mi ESE 6.9 mph - 0.33 in Rain Heavy Rain
10:10 PM 55.4 °F 53.6 °F 94% 29.82 in 1.5 mi East 4.6 mph - 0.10 in Rain Rain
10:17 PM 55.4 °F 53.6 °F 94% 29.83 in 1.5 mi ESE 4.6 mph - 0.16 in Rain Heavy Rain
10:53 PM 57.9 °F 55.9 °F 93% 29.80 in 1.8 mi SE 8.1 mph - 0.41 in Rain Rain
11:06 PM 57.2 °F 55.4 °F 94% 29.77 in 5.0 mi ESE 8.1 mph - 0.00 in Rain Light Rain
11:20 PM 59.0 °F 57.2 °F 94% 29.76 in 7.0 mi SE 12.7 mph - 0.01 in Rain Light Rain
11:31 PM 60.8 °F 57.2 °F 88% 29.75 in 8.0 mi SE 17.3 mph - 0.01 in Rain Light Rain
11:53 PM 61.0 °F 57.9 °F 90% 29.74 in 10.0 mi South 17.3 mph - 0.01 in   Overcast